W4HIX-2 Weather Reports


time (UTC)temp
C
wind
direction
speed
KPH
gust
KPH
rain 1hr
cm
rain 24hr
cm
rain mn
cm
humidity
%
barometer
mb
20260503072516 21 23 3.2 12.9 0.00 0.94 0.23 94 1013.7
20260503071516 21 314 3.2 12.9 0.00 0.94 0.23 95 1013.6
20260503070516 21 326 3.2 16.1 0.00 0.94 0.23 95 1013.6
20260503054516 21 298 4.8 12.9 0.15 0.91 0.20 95 1014.4
20260503053516 21 299 3.2 12.9 0.13 0.89 0.18 95 1014.4
20260503052516 21 265 8.0 20.9 0.15 0.89 0.18 94 1014.4
20260503051516 21 296 4.8 17.7 0.13 0.84 0.13 94 1014.3
20260503050516 21 275 6.4 14.5 0.08 0.79 0.08 94 1014.3
20260503045536 22 289 3.2 11.3 0.08 0.79 0.08 94 1014.4
20260503044516 22 316 3.2 11.3 0.05 0.76 0.05 93 1014.3
20260503043515 22 232 3.2 11.3 0.05 0.76 0.05 92 1014.1
20260503042516 23 232 6.4 16.1 0.03 0.74 0.03 90 1014.2
20260503041516 23 200 3.2 14.5 0.00 0.71 0.00 89 1014.1
20260503040515 23 137 3.2 8.0 0.00 0.71 0.00 89 1013.8
20260503035516 23 137 6.4 16.1 0.00 0.71 0.10 89 1013.9
20260503034516 23 137 6.4 14.5 0.00 0.71 0.10 88 1013.9
20260503033515 23 140 6.4 14.5 0.00 0.71 0.10 88 1013.6
20260503032515 23 137 6.4 14.5 0.00 0.71 0.10 88 1013.5
20260503031516 23 138 4.8 12.9 0.00 0.71 0.10 89 1013.2
20260503030535 23 132 9.7 17.7 0.00 0.71 0.10 89 1013.0
20260503025516 23 122 11.3 16.1 0.00 0.71 0.10 90 1012.9
20260503024515 23 133 11.3 16.1 0.00 0.71 0.10 90 1013.1
20260503023515 23 128 9.7 16.1 0.00 0.71 0.10 89 1012.8
20260503022515 23 131 8.0 14.5 0.00 0.71 0.10 89 1012.8
20260503021515 23 126 8.0 14.5 0.00 0.71 0.10 88 1012.7
20260503020515 23 132 9.7 16.1 0.00 0.71 0.10 88 1013.0
20260503015515 23 148 1.6 8.0 0.00 0.71 0.10 87 1012.8
20260503014515 23 173 0.0 8.0 0.00 0.71 0.10 88 1012.8
20260503013535 23 179 3.2 8.0 0.00 0.71 0.10 89 1012.6
20260503012515 23 183 0.0 3.2 0.00 0.71 0.10 89 1012.3
20260503011536 22 181 1.6 6.4 0.00 0.71 0.10 88 1011.8
20260503010515 22 174 3.2 8.0 0.00 0.71 0.10 88 1011.8
20260503005515 22 164 0.0 4.8 0.00 0.71 0.10 89 1011.5
20260503004515 22 165 0.0 6.4 0.00 0.71 0.10 89 1011.6
20260503003515 22 137 1.6 12.9 0.00 0.71 0.10 89 1011.8
20260503002515 22 147 6.4 11.3 0.03 0.71 0.10 89 1011.7
20260503001515 22 175 1.6 3.2 0.05 0.71 0.10 89 1011.6
20260503000535 22 171 1.6 9.7 0.08 0.71 0.10 91 1011.6
20260502235515 22 151 1.6 8.0 0.10 0.71 0.10 92 1011.7
20260502234515 22 166 3.2 8.0 0.10 0.71 0.10 93 1011.1
20260502233515 22 191 1.6 4.8 0.10 0.71 0.10 91 1009.9
20260502232515 22 192 0.0 4.8 0.08 0.69 0.08 90 1009.8
20260502231535 22 189 1.6 4.8 0.05 0.66 0.05 89 1011.3
20260502230537 22 0.0 0.0 0.03 0.64 0.03 87 1011.5
20260502215015 22 0.0 0.0 0.25 0.61 0.61 94 1011.2
20260502214016 22 0.0 0.0 0.23 0.58 0.58 94 1010.6
20260502213016 22 0.0 0.0 0.20 0.56 0.56 94 1010.1
20260502212016 22 0.0 0.0 0.20 0.56 0.56 94 1010.3
20260502211035 22 255 3.2 4.8 0.18 0.53 0.53 93 1010.4
20260502210056 22 212 6.4 20.9 0.15 0.51 0.51 93 1010.7
20260502205015 22 207 9.7 17.7 0.00 0.36 0.36 93 1011.5
20260502204036 22 219 9.7 17.7 0.36 0.36 0.36 94 1011.5
20260502203016 22 227 8.0 14.5 0.36 0.36 0.36 93 1011.4
20260502202015 22 221 9.7 14.5 0.36 0.36 0.36 93 1010.9
20260502201036 22 238 4.8 11.3 0.36 0.36 0.36 93 1010.9
20260502200016 22 249 4.8 14.5 0.36 0.36 0.36 92 1010.8
20260502195016 22 219 11.3 27.4 0.36 0.36 0.36 88 1011.1
20260502194016 25 213 20.9 32.2 0.00 0.00 0.00 89 1011.1
20260502193036 26 140 6.4 19.3 0.00 0.00 0.00 91 1010.5
20260502192015 26 145 6.4 16.1 0.00 0.00 0.00 91 1010.9
20260502191016 26 152 3.2 8.0 0.00 0.00 0.00 91 1011.3
20260502190015 26 158 1.6 8.0 0.00 0.00 0.00 91 1011.4
20260502185015 26 158 4.8 14.5 0.00 0.00 0.00 91 1011.2
20260502184015 26 149 6.4 17.7 0.00 0.00 0.00 91 1011.3
20260502183015 26 159 4.8 19.3 0.00 0.00 0.00 91 1011.4
20260502182015 26 164 6.4 16.1 0.00 0.00 0.00 90 1011.4
20260502181016 26 159 8.0 24.1 0.00 0.00 0.00 90 1011.4
20260502164035 26 158 6.4 16.1 0.00 0.00 0.00 88 1011.9
20260502163015 26 157 9.7 32.2 0.00 0.00 0.00 88 1011.8
20260502162015 26 139 16.1 29.0 0.00 0.00 0.00 88 1011.6
20260502161015 27 161 8.0 22.5 0.00 0.00 0.00 87 1011.7
20260502152015 26 159 4.8 24.1 0.00 0.00 0.00 86 1012.0
20260502151015 26 157 8.0 22.5 0.00 0.00 0.00 86 1011.9
20260502123017 25 127 19.3 24.1 0.00 0.00 0.00 90 1010.2
20260502122037 24 110 11.3 22.5 0.00 0.00 0.00 89 1010.0
20260502121017 24 95 6.4 12.9 0.00 0.00 0.00 89 1010.0
20260502115017 23 87 3.2 9.7 0.00 0.00 0.00 89 1010.0
20260502114017 23 95 3.2 9.7 0.00 0.00 0.00 90 1010.2
20260502113057 23 99 4.8 16.1 0.00 0.00 0.00 91 1010.0
20260502112037 23 106 12.9 17.7 0.00 0.00 0.00 91 1009.9
20260502111017 23 106 12.9 16.1 0.00 0.00 0.00 91 1009.8
20260502110017 23 110 14.5 17.7 0.00 0.00 0.00 91 1009.8
20260502105016 23 103 9.7 16.1 0.00 0.00 0.00 91 1009.8
20260502104037 23 107 11.3 14.5 0.00 0.00 0.00 91 1009.7
20260502103017 23 115 11.3 14.5 0.00 0.00 0.00 91 1009.9
20260502102017 23 108 14.5 19.3 0.00 0.00 0.00 91 1009.7
20260502101017 23 108 16.1 20.9 0.00 0.00 0.00 92 1009.5
20260502091017 23 121 9.7 12.9 0.00 0.00 0.00 92 1010.1